M I D A S
Marine Information and Data Acquisition System
Tripno 1593 of the Zeeleeuw from 2008-10-22 06:58:39 to 2008-10-22 11:53:53
Back to CruiseResearch ActivitiesStationsMapUnderway DataData graphs

EquipmentUnitsComments
TimeDGPSUTC
LatitudeDGPSDM.mWGS84
LongitudeDGPSDM.mWGS84
SpeedMeteo Stationm/sRelative wind speed
DirectionMeteo StationdegRelative wind direction
TemperatureMeteo Stationdeg CelciusAir temperature
PressureMeteo StationPaAtmospheric pressure
HumidityMeteo Station%Relative humidity
Missing or incorrect values are displayed as -999
Metereological data collected by the RV Zeeleeuw from 2008-10-22 06:54:10 to 2008-10-22 11:56:52
                                                                                    Next 1000 lines
Time Latitude Longitude Speed Direction Temperature Pressure Humidity
2008-10-22 06:54:20 51°13.622 2°56.044 -999 -999 -999 -999 -999
2008-10-22 06:54:25 51°13.623 2°56.041 -999 -999 -999 -999 -999
2008-10-22 06:54:30 51°13.624 2°56.037 -999 -999 -999 -999 -999
2008-10-22 06:54:35 51°13.625 2°56.032 -999 -999 -999 -999 -999
2008-10-22 06:54:40 51°13.627 2°56.027 -999 -999 -999 -999 -999
2008-10-22 06:54:45 51°13.629 2°56.021 -999 -999 -999 -999 -999
2008-10-22 06:54:50 51°13.631 2°56.014 -999 -999 -999 -999 -999
2008-10-22 06:54:55 51°13.633 2°56.007 -999 -999 -999 -999 -999
2008-10-22 06:55:00 51°13.635 2°56 -999 -999 -999 -999 -999
2008-10-22 06:55:05 51°13.638 2°55.992 -999 -999 -999 -999 -999
2008-10-22 06:55:10 51°13.64 2°55.983 -999 -999 -999 -999 -999
2008-10-22 06:55:15 51°13.642 2°55.975 -999 -999 -999 -999 -999
2008-10-22 06:55:20 51°13.644 2°55.967 -999 -999 -999 -999 -999
2008-10-22 06:55:25 51°13.647 2°55.958 -999 -999 -999 -999 -999
2008-10-22 06:55:30 51°13.649 2°55.949 -999 -999 -999 -999 -999
2008-10-22 06:55:35 51°13.652 2°55.939 -999 -999 -999 -999 -999
2008-10-22 06:55:40 51°13.654 2°55.93 -999 -999 -999 -999 -999
2008-10-22 06:55:45 51°13.657 2°55.92 -999 -999 -999 -999 -999
2008-10-22 06:55:50 51°13.66 2°55.911 -999 -999 -999 -999 -999
2008-10-22 06:55:55 51°13.662 2°55.901 -999 -999 -999 -999 -999
2008-10-22 06:56:00 51°13.665 2°55.891 -999 -999 -999 -999 -999
2008-10-22 06:56:05 51°13.668 2°55.882 -999 -999 -999 -999 -999
2008-10-22 06:56:10 51°13.671 2°55.872 -999 -999 -999 -999 -999
2008-10-22 06:56:15 51°13.674 2°55.863 -999 -999 -999 -999 -999
2008-10-22 06:56:20 51°13.676 2°55.855 -999 -999 -999 -999 -999
2008-10-22 06:56:25 51°13.679 2°55.847 -999 -999 -999 -999 -999
2008-10-22 06:56:30 51°13.681 2°55.839 -999 -999 -999 -999 -999
2008-10-22 06:56:35 51°13.683 2°55.831 -999 -999 -999 -999 -999
2008-10-22 06:56:40 51°13.685 2°55.823 -999 -999 -999 -999 -999
2008-10-22 06:56:45 51°13.687 2°55.815 -999 -999 -999 -999 -999
2008-10-22 06:56:50 51°13.689 2°55.808 -999 -999 -999 -999 -999
2008-10-22 06:56:55 51°13.69 2°55.801 -999 -999 -999 -999 -999
2008-10-22 06:57:00 51°13.691 2°55.793 -999 -999 -999 -999 -999
2008-10-22 06:57:05 51°13.692 2°55.786 -999 -999 -999 -999 -999
2008-10-22 06:57:10 51°13.693 2°55.779 -999 -999 -999 -999 -999
2008-10-22 06:57:15 51°13.694 2°55.773 -999 -999 -999 -999 -999
2008-10-22 06:57:20 51°13.695 2°55.767 -999 -999 -999 -999 -999
2008-10-22 06:57:25 51°13.695 2°55.761 -999 -999 -999 -999 -999
2008-10-22 06:57:30 51°13.695 2°55.755 -999 -999 -999 -999 -999
2008-10-22 06:57:35 51°13.695 2°55.749 -999 -999 -999 -999 -999
2008-10-22 06:57:40 51°13.695 2°55.744 -999 -999 -999 -999 -999
2008-10-22 06:57:45 51°13.695 2°55.74 -999 -999 -999 -999 -999
2008-10-22 06:57:50 51°13.695 2°55.736 -999 -999 -999 -999 -999
2008-10-22 06:57:55 51°13.695 2°55.732 -999 -999 -999 -999 -999
2008-10-22 06:58:00 51°13.695 2°55.73 -999 -999 -999 -999 -999
2008-10-22 06:58:05 51°13.695 2°55.728 -999 -999 -999 -999 -999
2008-10-22 06:58:10 51°13.695 2°55.727 -999 -999 -999 -999 -999
2008-10-22 06:58:15 51°13.695 2°55.726 -999 -999 -999 -999 -999
2008-10-22 06:58:20 51°13.695 2°55.726 -999 -999 -999 -999 -999
2008-10-22 06:58:25 51°13.696 2°55.726 -999 -999 -999 -999 -999
2008-10-22 06:58:30 51°13.696 2°55.727 -999 -999 -999 -999 -999
2008-10-22 06:58:35 51°13.697 2°55.728 -999 -999 -999 -999 -999
2008-10-22 06:58:40 51°13.699 2°55.729 -999 -999 -999 -999 -999
2008-10-22 06:58:45 51°13.7 2°55.731 -999 -999 -999 -999 -999
2008-10-22 06:58:50 51°13.702 2°55.732 -999 -999 -999 -999 -999
2008-10-22 06:58:55 51°13.704 2°55.733 -999 -999 -999 -999 -999
2008-10-22 06:59:00 51°13.707 2°55.734 -999 -999 -999 -999 -999
2008-10-22 06:59:05 51°13.711 2°55.735 -999 -999 -999 -999 -999
2008-10-22 06:59:10 51°13.715 2°55.735 -999 -999 -999 -999 -999
2008-10-22 06:59:15 51°13.72 2°55.734 -999 -999 -999 -999 -999
2008-10-22 06:59:20 51°13.725 2°55.731 -999 -999 -999 -999 -999
2008-10-22 06:59:25 51°13.731 2°55.727 -999 -999 -999 -999 -999
2008-10-22 06:59:30 51°13.737 2°55.722 -999 -999 -999 -999 -999
2008-10-22 06:59:35 51°13.744 2°55.716 -999 -999 -999 -999 -999
2008-10-22 06:59:40 51°13.751 2°55.709 -999 -999 -999 -999 -999
2008-10-22 06:59:45 51°13.758 2°55.703 -999 -999 -999 -999 -999
2008-10-22 06:59:50 51°13.766 2°55.695 -999 -999 -999 -999 -999
2008-10-22 06:59:55 51°13.774 2°55.688 -999 -999 -999 -999 -999
2008-10-22 07:00:00 51°13.782 2°55.68 -999 -999 -999 -999 -999
2008-10-22 07:00:05 51°13.791 2°55.672 -999 -999 -999 -999 -999
2008-10-22 07:00:10 51°13.8 2°55.665 -999 -999 -999 -999 -999
2008-10-22 07:00:15 51°13.809 2°55.657 -999 -999 -999 -999 -999
2008-10-22 07:00:20 51°13.819 2°55.649 -999 -999 -999 -999 -999
2008-10-22 07:00:25 51°13.828 2°55.641 -999 -999 -999 -999 -999
2008-10-22 07:00:30 51°13.838 2°55.633 -999 -999 -999 -999 -999
2008-10-22 07:00:35 51°13.848 2°55.625 -999 -999 -999 -999 -999
2008-10-22 07:00:40 51°13.858 2°55.617 -999 -999 -999 -999 -999
2008-10-22 07:00:45 51°13.868 2°55.608 -999 -999 -999 -999 -999
2008-10-22 07:00:50 51°13.879 2°55.6 -999 -999 -999 -999 -999
2008-10-22 07:00:55 51°13.889 2°55.592 -999 -999 -999 -999 -999
2008-10-22 07:01:00 51°13.899 2°55.584 -999 -999 -999 -999 -999
2008-10-22 07:01:05 51°13.91 2°55.575 -999 -999 -999 -999 -999
2008-10-22 07:01:10 51°13.92 2°55.567 -999 -999 -999 -999 -999
2008-10-22 07:01:15 51°13.931 2°55.559 -999 -999 -999 -999 -999
2008-10-22 07:01:20 51°13.941 2°55.551 -999 -999 -999 -999 -999
2008-10-22 07:01:25 51°13.952 2°55.542 -999 -999 -999 -999 -999
2008-10-22 07:01:30 51°13.962 2°55.533 -999 -999 -999 -999 -999
2008-10-22 07:01:35 51°13.973 2°55.525 -999 -999 -999 -999 -999
2008-10-22 07:01:40 51°13.983 2°55.517 -999 -999 -999 -999 -999
2008-10-22 07:01:45 51°13.993 2°55.508 -999 -999 -999 -999 -999
2008-10-22 07:01:50 51°14.004 2°55.5 -999 -999 -999 -999 -999
2008-10-22 07:01:55 51°14.015 2°55.492 -999 -999 -999 -999 -999
2008-10-22 07:02:00 51°14.025 2°55.484 -999 -999 -999 -999 -999
2008-10-22 07:02:05 51°14.036 2°55.476 -999 -999 -999 -999 -999
2008-10-22 07:02:10 51°14.047 2°55.468 -999 -999 -999 -999 -999
2008-10-22 07:02:15 51°14.057 2°55.461 -999 -999 -999 -999 -999
2008-10-22 07:02:20 51°14.068 2°55.453 -999 -999 -999 -999 -999
2008-10-22 07:02:25 51°14.079 2°55.445 -999 -999 -999 -999 -999
2008-10-22 07:02:30 51°14.089 2°55.437 -999 -999 -999 -999 -999
2008-10-22 07:02:35 51°14.1 2°55.428 -999 -999 -999 -999 -999
2008-10-22 07:02:40 51°14.11 2°55.42 -999 -999 -999 -999 -999
2008-10-22 07:02:45 51°14.121 2°55.411 -999 -999 -999 -999 -999
2008-10-22 07:02:50 51°14.131 2°55.402 -999 -999 -999 -999 -999
2008-10-22 07:02:55 51°14.142 2°55.393 -999 -999 -999 -999 -999
2008-10-22 07:03:00 51°14.152 2°55.383 -999 -999 -999 -999 -999
2008-10-22 07:03:05 51°14.162 2°55.374 -999 -999 -999 -999 -999
2008-10-22 07:03:10 51°14.172 2°55.363 -999 -999 -999 -999 -999
2008-10-22 07:03:15 51°14.182 2°55.353 -999 -999 -999 -999 -999
2008-10-22 07:03:20 51°14.192 2°55.342 -999 -999 -999 -999 -999
2008-10-22 07:03:25 51°14.202 2°55.332 -999 -999 -999 -999 -999
2008-10-22 07:03:30 51°14.213 2°55.32 -999 -999 -999 -999 -999
2008-10-22 07:03:35 51°14.223 2°55.307 -999 -999 -999 -999 -999
2008-10-22 07:03:40 51°14.232 2°55.293 -999 -999 -999 -999 -999
2008-10-22 07:03:45 51°14.242 2°55.28 -999 -999 -999 -999 -999
2008-10-22 07:03:50 51°14.252 2°55.265 -999 -999 -999 -999 -999
2008-10-22 07:03:55 51°14.261 2°55.249 -999 -999 -999 -999 -999
2008-10-22 07:04:00 51°14.271 2°55.234 -999 -999 -999 -999 -999
2008-10-22 07:04:05 51°14.28 2°55.218 -999 -999 -999 -999 -999
2008-10-22 07:04:10 51°14.289 2°55.201 -999 -999 -999 -999 -999
2008-10-22 07:04:15 51°14.298 2°55.183 -999 -999 -999 -999 -999
2008-10-22 07:04:20 51°14.307 2°55.166 -999 -999 -999 -999 -999
2008-10-22 07:04:25 51°14.315 2°55.148 -999 -999 -999 -999 -999
2008-10-22 07:04:30 51°14.323 2°55.129 -999 -999 -999 -999 -999
2008-10-22 07:04:35 51°14.331 2°55.111 -999 -999 -999 -999 -999
2008-10-22 07:04:40 51°14.339 2°55.092 -999 -999 -999 -999 -999
2008-10-22 07:04:45 51°14.347 2°55.073 -999 -999 -999 -999 -999
2008-10-22 07:04:50 51°14.354 2°55.054 -999 -999 -999 -999 -999
2008-10-22 07:04:55 51°14.361 2°55.034 -999 -999 -999 -999 -999
2008-10-22 07:05:00 51°14.368 2°55.015 -999 -999 -999 -999 -999
2008-10-22 07:05:05 51°14.376 2°54.995 -999 -999 -999 -999 -999
2008-10-22 07:05:10 51°14.384 2°54.976 -999 -999 -999 -999 -999
2008-10-22 07:05:15 51°14.392 2°54.957 -999 -999 -999 -999 -999
2008-10-22 07:05:20 51°14.401 2°54.937 -999 -999 -999 -999 -999
2008-10-22 07:05:25 51°14.41 2°54.917 -999 -999 -999 -999 -999
2008-10-22 07:05:30 51°14.418 2°54.897 -999 -999 -999 -999 -999
2008-10-22 07:05:35 51°14.427 2°54.876 -999 -999 -999 -999 -999
2008-10-22 07:05:40 51°14.436 2°54.854 -999 -999 -999 -999 -999
2008-10-22 07:05:45 51°14.444 2°54.833 -999 -999 -999 -999 -999
2008-10-22 07:05:50 51°14.453 2°54.812 -999 -999 -999 -999 -999
2008-10-22 07:05:55 51°14.461 2°54.789 -999 -999 -999 -999 -999
2008-10-22 07:06:00 51°14.469 2°54.767 -999 -999 -999 -999 -999
2008-10-22 07:06:05 51°14.477 2°54.745 -999 -999 -999 -999 -999
2008-10-22 07:06:10 51°14.485 2°54.722 -999 -999 -999 -999 -999
2008-10-22 07:06:15 51°14.494 2°54.7 -999 -999 -999 -999 -999
2008-10-22 07:06:20 51°14.502 2°54.677 -999 -999 -999 -999 -999
2008-10-22 07:06:25 51°14.51 2°54.655 -999 -999 -999 -999 -999
2008-10-22 07:06:30 51°14.518 2°54.632 -999 -999 -999 -999 -999
2008-10-22 07:06:35 51°14.526 2°54.61 -999 -999 -999 -999 -999
2008-10-22 07:06:40 51°14.535 2°54.587 -999 -999 -999 -999 -999
2008-10-22 07:06:45 51°14.543 2°54.565 -999 -999 -999 -999 -999
2008-10-22 07:06:50 51°14.551 2°54.542 -999 -999 -999 -999 -999
2008-10-22 07:06:55 51°14.559 2°54.519 -999 -999 -999 -999 -999
2008-10-22 07:07:00 51°14.566 2°54.496 -999 -999 -999 -999 -999
2008-10-22 07:07:05 51°14.574 2°54.473 -999 -999 -999 -999 -999
2008-10-22 07:07:10 51°14.581 2°54.45 -999 -999 -999 -999 -999
2008-10-22 07:07:15 51°14.589 2°54.427 -999 -999 -999 -999 -999
2008-10-22 07:07:20 51°14.595 2°54.404 -999 -999 -999 -999 -999
2008-10-22 07:07:25 51°14.602 2°54.381 -999 -999 -999 -999 -999
2008-10-22 07:07:30 51°14.608 2°54.357 -999 -999 -999 -999 -999
2008-10-22 07:07:35 51°14.615 2°54.333 -999 -999 -999 -999 -999
2008-10-22 07:07:40 51°14.62 2°54.309 -999 -999 -999 -999 -999
2008-10-22 07:07:45 51°14.626 2°54.285 -999 -999 -999 -999 -999
2008-10-22 07:07:50 51°14.631 2°54.26 -999 -999 -999 -999 -999
2008-10-22 07:07:55 51°14.636 2°54.236 -999 -999 -999 -999 -999
2008-10-22 07:08:00 51°14.641 2°54.212 -999 -999 -999 -999 -999
2008-10-22 07:08:05 51°14.646 2°54.187 -999 -999 -999 -999 -999
2008-10-22 07:08:10 51°14.651 2°54.163 -999 -999 -999 -999 -999
2008-10-22 07:08:15 51°14.656 2°54.138 -999 -999 -999 -999 -999
2008-10-22 07:08:20 51°14.66 2°54.114 -999 -999 -999 -999 -999
2008-10-22 07:08:25 51°14.664 2°54.089 -999 -999 -999 -999 -999
2008-10-22 07:08:30 51°14.668 2°54.064 -999 -999 -999 -999 -999
2008-10-22 07:08:35 51°14.673 2°54.04 -999 -999 -999 -999 -999
2008-10-22 07:08:40 51°14.676 2°54.015 -999 -999 -999 -999 -999
2008-10-22 07:08:45 51°14.68 2°53.991 -999 -999 -999 -999 -999
2008-10-22 07:08:50 51°14.684 2°53.966 -999 -999 -999 -999 -999
2008-10-22 07:08:55 51°14.688 2°53.941 -999 -999 -999 -999 -999
2008-10-22 07:09:00 51°14.692 2°53.917 -999 -999 -999 -999 -999
2008-10-22 07:09:05 51°14.696 2°53.892 -999 -999 -999 -999 -999
2008-10-22 07:09:10 51°14.699 2°53.867 -999 -999 -999 -999 -999
2008-10-22 07:09:15 51°14.703 2°53.842 -999 -999 -999 -999 -999
2008-10-22 07:09:20 51°14.707 2°53.818 -999 -999 -999 -999 -999
2008-10-22 07:09:25 51°14.711 2°53.793 -999 -999 -999 -999 -999
2008-10-22 07:09:30 51°14.714 2°53.768 -999 -999 -999 -999 -999
2008-10-22 07:09:35 51°14.718 2°53.743 -999 -999 -999 -999 -999
2008-10-22 07:09:40 51°14.722 2°53.718 -999 -999 -999 -999 -999
2008-10-22 07:09:45 51°14.725 2°53.693 -999 -999 -999 -999 -999
2008-10-22 07:09:50 51°14.729 2°53.668 -999 -999 -999 -999 -999
2008-10-22 07:09:55 51°14.733 2°53.643 -999 -999 -999 -999 -999
2008-10-22 07:10:00 51°14.736 2°53.618 -999 -999 -999 -999 -999
2008-10-22 07:10:05 51°14.74 2°53.593 -999 -999 -999 -999 -999
2008-10-22 07:10:10 51°14.744 2°53.568 -999 -999 -999 -999 -999
2008-10-22 07:10:15 51°14.747 2°53.542 -999 -999 -999 -999 -999
2008-10-22 07:10:20 51°14.751 2°53.517 -999 -999 -999 -999 -999
2008-10-22 07:10:25 51°14.755 2°53.492 -999 -999 -999 -999 -999
2008-10-22 07:10:30 51°14.759 2°53.467 -999 -999 -999 -999 -999
2008-10-22 07:10:35 51°14.762 2°53.442 -999 -999 -999 -999 -999
2008-10-22 07:10:40 51°14.766 2°53.417 -999 -999 -999 -999 -999
2008-10-22 07:10:45 51°14.769 2°53.392 -999 -999 -999 -999 -999
2008-10-22 07:10:50 51°14.773 2°53.367 -999 -999 -999 -999 -999
2008-10-22 07:10:55 51°14.777 2°53.342 -999 -999 -999 -999 -999
2008-10-22 07:11:00 51°14.78 2°53.316 -999 -999 -999 -999 -999
2008-10-22 07:11:05 51°14.784 2°53.291 -999 -999 -999 -999 -999
2008-10-22 07:11:10 51°14.787 2°53.266 -999 -999 -999 -999 -999
2008-10-22 07:11:15 51°14.791 2°53.241 -999 -999 -999 -999 -999
2008-10-22 07:11:20 51°14.794 2°53.215 -999 -999 -999 -999 -999
2008-10-22 07:11:25 51°14.798 2°53.19 -999 -999 -999 -999 -999
2008-10-22 07:11:30 51°14.801 2°53.165 -999 -999 -999 -999 -999
2008-10-22 07:11:35 51°14.805 2°53.14 -999 -999 -999 -999 -999
2008-10-22 07:11:40 51°14.808 2°53.114 -999 -999 -999 -999 -999
2008-10-22 07:11:45 51°14.812 2°53.089 -999 -999 -999 -999 -999
2008-10-22 07:11:50 51°14.816 2°53.064 -999 -999 -999 -999 -999
2008-10-22 07:11:55 51°14.82 2°53.039 -999 -999 -999 -999 -999
2008-10-22 07:12:00 51°14.823 2°53.014 -999 -999 -999 -999 -999
2008-10-22 07:12:05 51°14.827 2°52.989 -999 -999 -999 -999 -999
2008-10-22 07:12:10 51°14.831 2°52.965 -999 -999 -999 -999 -999
2008-10-22 07:12:15 51°14.835 2°52.94 -999 -999 -999 -999 -999
2008-10-22 07:12:20 51°14.838 2°52.915 -999 -999 -999 -999 -999
2008-10-22 07:12:25 51°14.841 2°52.89 -999 -999 -999 -999 -999
2008-10-22 07:12:30 51°14.845 2°52.865 -999 -999 -999 -999 -999
2008-10-22 07:12:35 51°14.847 2°52.84 -999 -999 -999 -999 -999
2008-10-22 07:12:40 51°14.85 2°52.815 -999 -999 -999 -999 -999
2008-10-22 07:12:45 51°14.853 2°52.79 -999 -999 -999 -999 -999
2008-10-22 07:12:50 51°14.856 2°52.765 -999 -999 -999 -999 -999
2008-10-22 07:12:55 51°14.859 2°52.74 -999 -999 -999 -999 -999
2008-10-22 07:13:00 51°14.861 2°52.715 -999 -999 -999 -999 -999
2008-10-22 07:13:05 51°14.864 2°52.69 -999 -999 -999 -999 -999
2008-10-22 07:13:10 51°14.867 2°52.665 -999 -999 -999 -999 -999
2008-10-22 07:13:15 51°14.87 2°52.641 -999 -999 -999 -999 -999
2008-10-22 07:13:20 51°14.873 2°52.616 -999 -999 -999 -999 -999
2008-10-22 07:13:25 51°14.876 2°52.591 -999 -999 -999 -999 -999
2008-10-22 07:13:30 51°14.879 2°52.566 -999 -999 -999 -999 -999
2008-10-22 07:13:35 51°14.882 2°52.541 -999 -999 -999 -999 -999
2008-10-22 07:13:40 51°14.885 2°52.517 -999 -999 -999 -999 -999
2008-10-22 07:13:45 51°14.888 2°52.492 -999 -999 -999 -999 -999
2008-10-22 07:13:50 51°14.891 2°52.467 -999 -999 -999 -999 -999
2008-10-22 07:13:55 51°14.894 2°52.442 -999 -999 -999 -999 -999
2008-10-22 07:14:00 51°14.897 2°52.417 -999 -999 -999 -999 -999
2008-10-22 07:14:05 51°14.9 2°52.392 -999 -999 -999 -999 -999
2008-10-22 07:14:10 51°14.903 2°52.368 -999 -999 -999 -999 -999
2008-10-22 07:14:15 51°14.906 2°52.343 -999 -999 -999 -999 -999
2008-10-22 07:14:20 51°14.91 2°52.318 -999 -999 -999 -999 -999
2008-10-22 07:14:25 51°14.912 2°52.294 -999 -999 -999 -999 -999
2008-10-22 07:14:30 51°14.916 2°52.269 -999 -999 -999 -999 -999
2008-10-22 07:14:35 51°14.919 2°52.244 -999 -999 -999 -999 -999
2008-10-22 07:14:40 51°14.922 2°52.22 -999 -999 -999 -999 -999
2008-10-22 07:14:45 51°14.925 2°52.195 -999 -999 -999 -999 -999
2008-10-22 07:14:50 51°14.928 2°52.17 -999 -999 -999 -999 -999
2008-10-22 07:14:55 51°14.931 2°52.145 -999 -999 -999 -999 -999
2008-10-22 07:15:00 51°14.935 2°52.121 -999 -999 -999 -999 -999
2008-10-22 07:15:05 51°14.938 2°52.096 -999 -999 -999 -999 -999
2008-10-22 07:15:10 51°14.941 2°52.071 -999 -999 -999 -999 -999
2008-10-22 07:15:15 51°14.944 2°52.046 -999 -999 -999 -999 -999
2008-10-22 07:15:20 51°14.948 2°52.022 -999 -999 -999 -999 -999
2008-10-22 07:15:25 51°14.951 2°51.997 -999 -999 -999 -999 -999
2008-10-22 07:15:30 51°14.954 2°51.972 -999 -999 -999 -999 -999
2008-10-22 07:15:35 51°14.957 2°51.947 -999 -999 -999 -999 -999
2008-10-22 07:15:40 51°14.961 2°51.923 -999 -999 -999 -999 -999
2008-10-22 07:15:45 51°14.964 2°51.898 -999 -999 -999 -999 -999
2008-10-22 07:15:50 51°14.967 2°51.873 -999 -999 -999 -999 -999
2008-10-22 07:15:55 51°14.971 2°51.849 -999 -999 -999 -999 -999
2008-10-22 07:16:00 51°14.974 2°51.824 -999 -999 -999 -999 -999
2008-10-22 07:16:05 51°14.978 2°51.799 -999 -999 -999 -999 -999
2008-10-22 07:16:10 51°14.981 2°51.775 -999 -999 -999 -999 -999
2008-10-22 07:16:15 51°14.985 2°51.75 -999 -999 -999 -999 -999
2008-10-22 07:16:20 51°14.988 2°51.725 -999 -999 -999 -999 -999
2008-10-22 07:16:25 51°14.992 2°51.701 -999 -999 -999 -999 -999
2008-10-22 07:16:30 51°14.996 2°51.676 -999 -999 -999 -999 -999
2008-10-22 07:16:35 51°15 2°51.652 -999 -999 -999 -999 -999
2008-10-22 07:16:40 51°15.004 2°51.627 -999 -999 -999 -999 -999
2008-10-22 07:16:45 51°15.008 2°51.603 -999 -999 -999 -999 -999
2008-10-22 07:16:50 51°15.012 2°51.578 -999 -999 -999 -999 -999
2008-10-22 07:16:55 51°15.017 2°51.554 -999 -999 -999 -999 -999
2008-10-22 07:17:00 51°15.021 2°51.53 -999 -999 -999 -999 -999
2008-10-22 07:17:05 51°15.025 2°51.505 -999 -999 -999 -999 -999
2008-10-22 07:17:10 51°15.03 2°51.481 -999 -999 -999 -999 -999
2008-10-22 07:17:15 51°15.034 2°51.456 -999 -999 -999 -999 -999
2008-10-22 07:17:20 51°15.038 2°51.432 -999 -999 -999 -999 -999
2008-10-22 07:17:25 51°15.042 2°51.408 -999 -999 -999 -999 -999
2008-10-22 07:17:30 51°15.047 2°51.383 -999 -999 -999 -999 -999
2008-10-22 07:17:35 51°15.051 2°51.359 -999 -999 -999 -999 -999
2008-10-22 07:17:40 51°15.055 2°51.334 -999 -999 -999 -999 -999
2008-10-22 07:17:45 51°15.06 2°51.31 -999 -999 -999 -999 -999
2008-10-22 07:17:50 51°15.064 2°51.285 -999 -999 -999 -999 -999
2008-10-22 07:17:55 51°15.068 2°51.261 -999 -999 -999 -999 -999
2008-10-22 07:18:00 51°15.072 2°51.236 -999 -999 -999 -999 -999
2008-10-22 07:18:05 51°15.076 2°51.212 -999 -999 -999 -999 -999
2008-10-22 07:18:10 51°15.08 2°51.187 -999 -999 -999 -999 -999
2008-10-22 07:18:15 51°15.084 2°51.162 -999 -999 -999 -999 -999
2008-10-22 07:18:20 51°15.088 2°51.138 -999 -999 -999 -999 -999
2008-10-22 07:18:25 51°15.092 2°51.113 -999 -999 -999 -999 -999
2008-10-22 07:18:30 51°15.096 2°51.089 -999 -999 -999 -999 -999
2008-10-22 07:18:35 51°15.1 2°51.064 -999 -999 -999 -999 -999
2008-10-22 07:18:40 51°15.104 2°51.039 -999 -999 -999 -999 -999
2008-10-22 07:18:45 51°15.108 2°51.015 -999 -999 -999 -999 -999
2008-10-22 07:18:50 51°15.112 2°50.99 -999 -999 -999 -999 -999
2008-10-22 07:18:55 51°15.116 2°50.966 -999 -999 -999 -999 -999
2008-10-22 07:19:00 51°15.12 2°50.941 -999 -999 -999 -999 -999
2008-10-22 07:19:05 51°15.124 2°50.916 -999 -999 -999 -999 -999
2008-10-22 07:19:10 51°15.128 2°50.892 -999 -999 -999 -999 -999
2008-10-22 07:19:15 51°15.132 2°50.867 -999 -999 -999 -999 -999
2008-10-22 07:19:20 51°15.136 2°50.843 -999 -999 -999 -999 -999
2008-10-22 07:19:25 51°15.14 2°50.818 -999 -999 -999 -999 -999
2008-10-22 07:19:30 51°15.144 2°50.793 -999 -999 -999 -999 -999
2008-10-22 07:19:35 51°15.149 2°50.769 -999 -999 -999 -999 -999
2008-10-22 07:19:40 51°15.153 2°50.744 -999 -999 -999 -999 -999
2008-10-22 07:19:45 51°15.157 2°50.72 -999 -999 -999 -999 -999
2008-10-22 07:19:50 51°15.161 2°50.695 -999 -999 -999 -999 -999
2008-10-22 07:19:55 51°15.165 2°50.67 -999 -999 -999 -999 -999
2008-10-22 07:20:00 51°15.169 2°50.646 -999 -999 -999 -999 -999
2008-10-22 07:20:05 51°15.173 2°50.621 -999 -999 -999 -999 -999
2008-10-22 07:20:10 51°15.176 2°50.597 -999 -999 -999 -999 -999
2008-10-22 07:20:15 51°15.18 2°50.572 -999 -999 -999 -999 -999
2008-10-22 07:20:20 51°15.183 2°50.547 -999 -999 -999 -999 -999
2008-10-22 07:20:25 51°15.188 2°50.523 -999 -999 -999 -999 -999
2008-10-22 07:20:30 51°15.191 2°50.498 -999 -999 -999 -999 -999
2008-10-22 07:20:35 51°15.195 2°50.473 -999 -999 -999 -999 -999
2008-10-22 07:20:40 51°15.199 2°50.449 -999 -999 -999 -999 -999
2008-10-22 07:20:45 51°15.203 2°50.424 -999 -999 -999 -999 -999
2008-10-22 07:20:50 51°15.207 2°50.399 -999 -999 -999 -999 -999
2008-10-22 07:20:55 51°15.211 2°50.375 -999 -999 -999 -999 -999
2008-10-22 07:21:00 51°15.215 2°50.35 -999 -999 -999 -999 -999
2008-10-22 07:21:05 51°15.219 2°50.325 -999 -999 -999 -999 -999
2008-10-22 07:21:10 51°15.222 2°50.3 -999 -999 -999 -999 -999
2008-10-22 07:21:15 51°15.226 2°50.276 -999 -999 -999 -999 -999
2008-10-22 07:21:20 51°15.23 2°50.251 -999 -999 -999 -999 -999
2008-10-22 07:21:25 51°15.234 2°50.226 -999 -999 -999 -999 -999
2008-10-22 07:21:30 51°15.238 2°50.201 -999 -999 -999 -999 -999
2008-10-22 07:21:35 51°15.241 2°50.177 -999 -999 -999 -999 -999
2008-10-22 07:21:40 51°15.245 2°50.152 -999 -999 -999 -999 -999
2008-10-22 07:21:45 51°15.249 2°50.127 -999 -999 -999 -999 -999
2008-10-22 07:21:50 51°15.253 2°50.102 -999 -999 -999 -999 -999
2008-10-22 07:21:55 51°15.257 2°50.078 -999 -999 -999 -999 -999
2008-10-22 07:22:00 51°15.261 2°50.053 -999 -999 -999 -999 -999
2008-10-22 07:22:05 51°15.264 2°50.028 -999 -999 -999 -999 -999
2008-10-22 07:22:10 51°15.268 2°50.003 -999 -999 -999 -999 -999
2008-10-22 07:22:15 51°15.272 2°49.978 -999 -999 -999 -999 -999
2008-10-22 07:22:20 51°15.276 2°49.953 -999 -999 -999 -999 -999
2008-10-22 07:22:25 51°15.28 2°49.929 -999 -999 -999 -999 -999
2008-10-22 07:22:30 51°15.284 2°49.904 -999 -999 -999 -999 -999
2008-10-22 07:22:35 51°15.289 2°49.88 -999 -999 -999 -999 -999
2008-10-22 07:22:40 51°15.294 2°49.855 -999 -999 -999 -999 -999
2008-10-22 07:22:45 51°15.299 2°49.83 -999 -999 -999 -999 -999
2008-10-22 07:22:50 51°15.304 2°49.806 -999 -999 -999 -999 -999
2008-10-22 07:22:55 51°15.309 2°49.782 -999 -999 -999 -999 -999
2008-10-22 07:23:00 51°15.315 2°49.758 -999 -999 -999 -999 -999
2008-10-22 07:23:05 51°15.319 2°49.733 -999 -999 -999 -999 -999
2008-10-22 07:23:10 51°15.324 2°49.709 -999 -999 -999 -999 -999
2008-10-22 07:23:15 51°15.329 2°49.684 -999 -999 -999 -999 -999
2008-10-22 07:23:20 51°15.334 2°49.66 -999 -999 -999 -999 -999
2008-10-22 07:23:25 51°15.339 2°49.635 -999 -999 -999 -999 -999
2008-10-22 07:23:30 51°15.344 2°49.611 -999 -999 -999 -999 -999
2008-10-22 07:23:35 51°15.349 2°49.587 -999 -999 -999 -999 -999
2008-10-22 07:23:40 51°15.355 2°49.562 -999 -999 -999 -999 -999
2008-10-22 07:23:45 51°15.36 2°49.538 -999 -999 -999 -999 -999
2008-10-22 07:23:50 51°15.365 2°49.514 -999 -999 -999 -999 -999
2008-10-22 07:23:55 51°15.37 2°49.489 -999 -999 -999 -999 -999
2008-10-22 07:24:00 51°15.375 2°49.465 -999 -999 -999 -999 -999
2008-10-22 07:24:05 51°15.379 2°49.44 -999 -999 -999 -999 -999
2008-10-22 07:24:10 51°15.384 2°49.416 -999 -999 -999 -999 -999
2008-10-22 07:24:15 51°15.389 2°49.391 -999 -999 -999 -999 -999
2008-10-22 07:24:20 51°15.393 2°49.366 -999 -999 -999 -999 -999
2008-10-22 07:24:25 51°15.398 2°49.342 -999 -999 -999 -999 -999
2008-10-22 07:24:30 51°15.402 2°49.317 -999 -999 -999 -999 -999
2008-10-22 07:24:35 51°15.406 2°49.293 -999 -999 -999 -999 -999
2008-10-22 07:24:40 51°15.411 2°49.268 -999 -999 -999 -999 -999
2008-10-22 07:24:45 51°15.416 2°49.244 -999 -999 -999 -999 -999
2008-10-22 07:24:50 51°15.422 2°49.22 -999 -999 -999 -999 -999
2008-10-22 07:24:55 51°15.427 2°49.195 -999 -999 -999 -999 -999
2008-10-22 07:25:00 51°15.432 2°49.171 -999 -999 -999 -999 -999
2008-10-22 07:25:05 51°15.437 2°49.147 -999 -999 -999 -999 -999
2008-10-22 07:25:10 51°15.443 2°49.122 -999 -999 -999 -999 -999
2008-10-22 07:25:15 51°15.448 2°49.098 -999 -999 -999 -999 -999
2008-10-22 07:25:20 51°15.454 2°49.074 -999 -999 -999 -999 -999
2008-10-22 07:25:25 51°15.459 2°49.05 -999 -999 -999 -999 -999
2008-10-22 07:25:30 51°15.465 2°49.026 -999 -999 -999 -999 -999
2008-10-22 07:25:35 51°15.47 2°49.002 -999 -999 -999 -999 -999
2008-10-22 07:25:40 51°15.475 2°48.977 -999 -999 -999 -999 -999
2008-10-22 07:25:45 51°15.481 2°48.953 -999 -999 -999 -999 -999
2008-10-22 07:25:50 51°15.486 2°48.929 -999 -999 -999 -999 -999
2008-10-22 07:25:55 51°15.491 2°48.905 -999 -999 -999 -999 -999
2008-10-22 07:26:00 51°15.496 2°48.881 -999 -999 -999 -999 -999
2008-10-22 07:26:05 51°15.501 2°48.857 -999 -999 -999 -999 -999
2008-10-22 07:26:10 51°15.507 2°48.833 -999 -999 -999 -999 -999
2008-10-22 07:26:15 51°15.512 2°48.808 -999 -999 -999 -999 -999
2008-10-22 07:26:20 51°15.517 2°48.784 -999 -999 -999 -999 -999
2008-10-22 07:26:25 51°15.522 2°48.76 -999 -999 -999 -999 -999
2008-10-22 07:26:30 51°15.527 2°48.735 -999 -999 -999 -999 -999
2008-10-22 07:26:35 51°15.532 2°48.711 -999 -999 -999 -999 -999
2008-10-22 07:26:40 51°15.537 2°48.687 -999 -999 -999 -999 -999
2008-10-22 07:26:45 51°15.542 2°48.662 -999 -999 -999 -999 -999
2008-10-22 07:26:50 51°15.547 2°48.638 -999 -999 -999 -999 -999
2008-10-22 07:26:55 51°15.552 2°48.614 -999 -999 -999 -999 -999
2008-10-22 07:27:00 51°15.557 2°48.589 -999 -999 -999 -999 -999
2008-10-22 07:27:05 51°15.562 2°48.565 -999 -999 -999 -999 -999
2008-10-22 07:27:10 51°15.568 2°48.54 -999 -999 -999 -999 -999
2008-10-22 07:27:15 51°15.573 2°48.516 -999 -999 -999 -999 -999
2008-10-22 07:27:20 51°15.578 2°48.491 -999 -999 -999 -999 -999
2008-10-22 07:27:25 51°15.583 2°48.467 -999 -999 -999 -999 -999
2008-10-22 07:27:30 51°15.588 2°48.442 -999 -999 -999 -999 -999
2008-10-22 07:27:35 51°15.593 2°48.418 -999 -999 -999 -999 -999
2008-10-22 07:27:40 51°15.598 2°48.393 -999 -999 -999 -999 -999
2008-10-22 07:27:45 51°15.604 2°48.369 -999 -999 -999 -999 -999
2008-10-22 07:27:50 51°15.609 2°48.344 -999 -999 -999 -999 -999
2008-10-22 07:27:55 51°15.614 2°48.32 -999 -999 -999 -999 -999
2008-10-22 07:28:00 51°15.619 2°48.295 -999 -999 -999 -999 -999
2008-10-22 07:28:05 51°15.624 2°48.271 -999 -999 -999 -999 -999
2008-10-22 07:28:10 51°15.629 2°48.246 -999 -999 -999 -999 -999
2008-10-22 07:28:15 51°15.635 2°48.222 -999 -999 -999 -999 -999
2008-10-22 07:28:20 51°15.64 2°48.197 -999 -999 -999 -999 -999
2008-10-22 07:28:25 51°15.645 2°48.173 -999 -999 -999 -999 -999
2008-10-22 07:28:30 51°15.65 2°48.148 -999 -999 -999 -999 -999
2008-10-22 07:28:35 51°15.655 2°48.124 -999 -999 -999 -999 -999
2008-10-22 07:28:40 51°15.661 2°48.099 -999 -999 -999 -999 -999
2008-10-22 07:28:45 51°15.666 2°48.075 -999 -999 -999 -999 -999
2008-10-22 07:28:50 51°15.671 2°48.051 -999 -999 -999 -999 -999
2008-10-22 07:28:55 51°15.676 2°48.026 -999 -999 -999 -999 -999
2008-10-22 07:29:00 51°15.681 2°48.002 -999 -999 -999 -999 -999
2008-10-22 07:29:05 51°15.686 2°47.977 -999 -999 -999 -999 -999
2008-10-22 07:29:10 51°15.69 2°47.952 -999 -999 -999 -999 -999
2008-10-22 07:29:15 51°15.695 2°47.928 -999 -999 -999 -999 -999
2008-10-22 07:29:20 51°15.699 2°47.903 -999 -999 -999 -999 -999
2008-10-22 07:29:25 51°15.703 2°47.878 -999 -999 -999 -999 -999
2008-10-22 07:29:30 51°15.709 2°47.854 -999 -999 -999 -999 -999
2008-10-22 07:29:35 51°15.713 2°47.829 -999 -999 -999 -999 -999
2008-10-22 07:29:40 51°15.719 2°47.804 -999 -999 -999 -999 -999
2008-10-22 07:29:45 51°15.724 2°47.78 -999 -999 -999 -999 -999
2008-10-22 07:29:50 51°15.729 2°47.756 -999 -999 -999 -999 -999
2008-10-22 07:29:55 51°15.734 2°47.732 -999 -999 -999 -999 -999
2008-10-22 07:30:00 51°15.74 2°47.707 -999 -999 -999 -999 -999
2008-10-22 07:30:05 51°15.745 2°47.683 -999 -999 -999 -999 -999
2008-10-22 07:30:10 51°15.75 2°47.659 -999 -999 -999 -999 -999
2008-10-22 07:30:15 51°15.756 2°47.634 -999 -999 -999 -999 -999
2008-10-22 07:30:20 51°15.761 2°47.61 -999 -999 -999 -999 -999
2008-10-22 07:30:25 51°15.767 2°47.586 -999 -999 -999 -999 -999
2008-10-22 07:30:30 51°15.772 2°47.562 -999 -999 -999 -999 -999
2008-10-22 07:30:35 51°15.778 2°47.538 -999 -999 -999 -999 -999
2008-10-22 07:30:40 51°15.783 2°47.513 -999 -999 -999 -999 -999
2008-10-22 07:30:45 51°15.788 2°47.489 -999 -999 -999 -999 -999
2008-10-22 07:30:50 51°15.794 2°47.465 -999 -999 -999 -999 -999
2008-10-22 07:30:55 51°15.799 2°47.441 -999 -999 -999 -999 -999
2008-10-22 07:31:00 51°15.804 2°47.416 -999 -999 -999 -999 -999
2008-10-22 07:31:05 51°15.809 2°47.392 -999 -999 -999 -999 -999
2008-10-22 07:31:10 51°15.814 2°47.368 -999 -999 -999 -999 -999
2008-10-22 07:31:15 51°15.819 2°47.343 -999 -999 -999 -999 -999
2008-10-22 07:31:20 51°15.824 2°47.319 -999 -999 -999 -999 -999
2008-10-22 07:31:25 51°15.829 2°47.295 -999 -999 -999 -999 -999
2008-10-22 07:31:30 51°15.834 2°47.27 -999 -999 -999 -999 -999
2008-10-22 07:31:35 51°15.84 2°47.246 -999 -999 -999 -999 -999
2008-10-22 07:31:40 51°15.845 2°47.221 -999 -999 -999 -999 -999
2008-10-22 07:31:45 51°15.85 2°47.197 -999 -999 -999 -999 -999
2008-10-22 07:31:50 51°15.855 2°47.173 -999 -999 -999 -999 -999
2008-10-22 07:31:55 51°15.861 2°47.149 -999 -999 -999 -999 -999
2008-10-22 07:32:00 51°15.866 2°47.124 -999 -999 -999 -999 -999
2008-10-22 07:32:05 51°15.872 2°47.1 -999 -999 -999 -999 -999
2008-10-22 07:32:10 51°15.876 2°47.076 -999 -999 -999 -999 -999
2008-10-22 07:32:15 51°15.881 2°47.052 -999 -999 -999 -999 -999
2008-10-22 07:32:20 51°15.885 2°47.028 -999 -999 -999 -999 -999
2008-10-22 07:32:25 51°15.891 2°47.004 -999 -999 -999 -999 -999
2008-10-22 07:32:30 51°15.895 2°46.979 -999 -999 -999 -999 -999
2008-10-22 07:32:35 51°15.9 2°46.955 -999 -999 -999 -999 -999
2008-10-22 07:32:40 51°15.904 2°46.93 -999 -999 -999 -999 -999
2008-10-22 07:32:45 51°15.909 2°46.906 -999 -999 -999 -999 -999
2008-10-22 07:32:50 51°15.913 2°46.882 -999 -999 -999 -999 -999
2008-10-22 07:32:55 51°15.918 2°46.857 -999 -999 -999 -999 -999
2008-10-22 07:33:00 51°15.922 2°46.833 -999 -999 -999 -999 -999
2008-10-22 07:33:05 51°15.927 2°46.809 -999 -999 -999 -999 -999
2008-10-22 07:33:10 51°15.933 2°46.785 -999 -999 -999 -999 -999
2008-10-22 07:33:15 51°15.938 2°46.76 -999 -999 -999 -999 -999
2008-10-22 07:33:20 51°15.943 2°46.736 -999 -999 -999 -999 -999
2008-10-22 07:33:25 51°15.948 2°46.712 -999 -999 -999 -999 -999
2008-10-22 07:33:30 51°15.952 2°46.687 -999 -999 -999 -999 -999
2008-10-22 07:33:35 51°15.958 2°46.663 -999 -999 -999 -999 -999
2008-10-22 07:33:40 51°15.962 2°46.639 -999 -999 -999 -999 -999
2008-10-22 07:33:45 51°15.967 2°46.615 -999 -999 -999 -999 -999
2008-10-22 07:33:50 51°15.972 2°46.591 -999 -999 -999 -999 -999
2008-10-22 07:33:55 51°15.977 2°46.566 -999 -999 -999 -999 -999
2008-10-22 07:34:00 51°15.981 2°46.542 -999 -999 -999 -999 -999
2008-10-22 07:34:05 51°15.986 2°46.518 -999 -999 -999 -999 -999
2008-10-22 07:34:10 51°15.991 2°46.494 -999 -999 -999 -999 -999
2008-10-22 07:34:15 51°15.996 2°46.47 -999 -999 -999 -999 -999
2008-10-22 07:34:20 51°16.001 2°46.446 -999 -999 -999 -999 -999
2008-10-22 07:34:25 51°16.006 2°46.421 -999 -999 -999 -999 -999
2008-10-22 07:34:30 51°16.011 2°46.397 -999 -999 -999 -999 -999
2008-10-22 07:34:35 51°16.016 2°46.373 -999 -999 -999 -999 -999
2008-10-22 07:34:40 51°16.021 2°46.349 -999 -999 -999 -999 -999
2008-10-22 07:34:45 51°16.026 2°46.325 -999 -999 -999 -999 -999
2008-10-22 07:34:50 51°16.031 2°46.301 -999 -999 -999 -999 -999
2008-10-22 07:34:55 51°16.036 2°46.277 -999 -999 -999 -999 -999
2008-10-22 07:35:00 51°16.041 2°46.253 -999 -999 -999 -999 -999
2008-10-22 07:35:05 51°16.048 2°46.229 -999 -999 -999 -999 -999
2008-10-22 07:35:10 51°16.054 2°46.206 -999 -999 -999 -999 -999
2008-10-22 07:35:15 51°16.061 2°46.182 -999 -999 -999 -999 -999
2008-10-22 07:35:20 51°16.068 2°46.159 -999 -999 -999 -999 -999
2008-10-22 07:35:25 51°16.075 2°46.136 -999 -999 -999 -999 -999
2008-10-22 07:35:30 51°16.082 2°46.113 -999 -999 -999 -999 -999
2008-10-22 07:35:35 51°16.089 2°46.09 -999 -999 -999 -999 -999
2008-10-22 07:35:40 51°16.097 2°46.067 -999 -999 -999 -999 -999
2008-10-22 07:35:45 51°16.105 2°46.044 -999 -999 -999 -999 -999
2008-10-22 07:35:50 51°16.112 2°46.022 -999 -999 -999 -999 -999
2008-10-22 07:35:55 51°16.12 2°45.999 -999 -999 -999 -999 -999
2008-10-22 07:36:00 51°16.128 2°45.976 -999 -999 -999 -999 -999
2008-10-22 07:36:05 51°16.136 2°45.954 -999 -999 -999 -999 -999
2008-10-22 07:36:10 51°16.145 2°45.931 -999 -999 -999 -999 -999
2008-10-22 07:36:15 51°16.153 2°45.909 -999 -999 -999 -999 -999
2008-10-22 07:36:20 51°16.161 2°45.886 -999 -999 -999 -999 -999
2008-10-22 07:36:25 51°16.17 2°45.864 -999 -999 -999 -999 -999
2008-10-22 07:36:30 51°16.178 2°45.842 -999 -999 -999 -999 -999
2008-10-22 07:36:35 51°16.187 2°45.819 -999 -999 -999 -999 -999
2008-10-22 07:36:40 51°16.196 2°45.797 -999 -999 -999 -999 -999
2008-10-22 07:36:45 51°16.204 2°45.774 -999 -999 -999 -999 -999
2008-10-22 07:36:50 51°16.213 2°45.752 -999 -999 -999 -999 -999
2008-10-22 07:36:55 51°16.221 2°45.729 -999 -999 -999 -999 -999
2008-10-22 07:37:00 51°16.23 2°45.707 -999 -999 -999 -999 -999
2008-10-22 07:37:05 51°16.239 2°45.685 -999 -999 -999 -999 -999
2008-10-22 07:37:10 51°16.248 2°45.662 -999 -999 -999 -999 -999
2008-10-22 07:37:15 51°16.257 2°45.64 -999 -999 -999 -999 -999
2008-10-22 07:37:20 51°16.265 2°45.618 -999 -999 -999 -999 -999
2008-10-22 07:37:25 51°16.274 2°45.595 -999 -999 -999 -999 -999
2008-10-22 07:37:30 51°16.282 2°45.573 -999 -999 -999 -999 -999
2008-10-22 07:37:35 51°16.291 2°45.55 -999 -999 -999 -999 -999
2008-10-22 07:37:40 51°16.299 2°45.528 -999 -999 -999 -999 -999
2008-10-22 07:37:45 51°16.308 2°45.505 -999 -999 -999 -999 -999
2008-10-22 07:37:50 51°16.316 2°45.482 -999 -999 -999 -999 -999
2008-10-22 07:37:55 51°16.325 2°45.46 -999 -999 -999 -999 -999
2008-10-22 07:38:00 51°16.333 2°45.437 -999 -999 -999 -999 -999
2008-10-22 07:38:05 51°16.342 2°45.414 -999 -999 -999 -999 -999
2008-10-22 07:38:10 51°16.35 2°45.392 -999 -999 -999 -999 -999
2008-10-22 07:38:15 51°16.359 2°45.369 -999 -999 -999 -999 -999
2008-10-22 07:38:20 51°16.367 2°45.347 -999 -999 -999 -999 -999
2008-10-22 07:38:25 51°16.375 2°45.324 -999 -999 -999 -999 -999
2008-10-22 07:38:30 51°16.383 2°45.301 -999 -999 -999 -999 -999
2008-10-22 07:38:35 51°16.391 2°45.277 -999 -999 -999 -999 -999
2008-10-22 07:38:40 51°16.4 2°45.255 -999 -999 -999 -999 -999
2008-10-22 07:38:45 51°16.408 2°45.232 -999 -999 -999 -999 -999
2008-10-22 07:38:50 51°16.416 2°45.209 -999 -999 -999 -999 -999
2008-10-22 07:38:55 51°16.425 2°45.186 -999 -999 -999 -999 -999
2008-10-22 07:39:00 51°16.434 2°45.164 -999 -999 -999 -999 -999
2008-10-22 07:39:05 51°16.442 2°45.142 -999 -999 -999 -999 -999
2008-10-22 07:39:10 51°16.452 2°45.12 -999 -999 -999 -999 -999
2008-10-22 07:39:15 51°16.461 2°45.098 -999 -999 -999 -999 -999
2008-10-22 07:39:20 51°16.47 2°45.076 -999 -999 -999 -999 -999
2008-10-22 07:39:25 51°16.479 2°45.054 -999 -999 -999 -999 -999
2008-10-22 07:39:30 51°16.488 2°45.032 -999 -999 -999 -999 -999
2008-10-22 07:39:35 51°16.498 2°45.01 -999 -999 -999 -999 -999
2008-10-22 07:39:40 51°16.507 2°44.988 -999 -999 -999 -999 -999
2008-10-22 07:39:45 51°16.516 2°44.966 -999 -999 -999 -999 -999
2008-10-22 07:39:50 51°16.525 2°44.943 -999 -999 -999 -999 -999
2008-10-22 07:39:55 51°16.534 2°44.921 -999 -999 -999 -999 -999
2008-10-22 07:40:00 51°16.543 2°44.9 -999 -999 -999 -999 -999
2008-10-22 07:40:05 51°16.552 2°44.878 -999 -999 -999 -999 -999
2008-10-22 07:40:10 51°16.561 2°44.856 -999 -999 -999 -999 -999
2008-10-22 07:40:15 51°16.57 2°44.834 -999 -999 -999 -999 -999
2008-10-22 07:40:20 51°16.579 2°44.812 -999 -999 -999 -999 -999
2008-10-22 07:40:25 51°16.588 2°44.79 -999 -999 -999 -999 -999
2008-10-22 07:40:30 51°16.598 2°44.768 -999 -999 -999 -999 -999
2008-10-22 07:40:35 51°16.607 2°44.746 -999 -999 -999 -999 -999
2008-10-22 07:40:40 51°16.616 2°44.724 -999 -999 -999 -999 -999
2008-10-22 07:40:45 51°16.625 2°44.702 -999 -999 -999 -999 -999
2008-10-22 07:40:50 51°16.634 2°44.68 -999 -999 -999 -999 -999
2008-10-22 07:40:55 51°16.643 2°44.658 -999 -999 -999 -999 -999
2008-10-22 07:41:00 51°16.652 2°44.636 -999 -999 -999 -999 -999
2008-10-22 07:41:05 51°16.661 2°44.613 -999 -999 -999 -999 -999
2008-10-22 07:41:10 51°16.67 2°44.591 -999 -999 -999 -999 -999
2008-10-22 07:41:15 51°16.679 2°44.569 -999 -999 -999 -999 -999
2008-10-22 07:41:20 51°16.688 2°44.547 -999 -999 -999 -999 -999
2008-10-22 07:41:25 51°16.697 2°44.525 -999 -999 -999 -999 -999
2008-10-22 07:41:30 51°16.706 2°44.503 -999 -999 -999 -999 -999
2008-10-22 07:41:35 51°16.715 2°44.48 -999 -999 -999 -999 -999
2008-10-22 07:41:40 51°16.723 2°44.458 -999 -999 -999 -999 -999
2008-10-22 07:41:45 51°16.732 2°44.435 -999 -999 -999 -999 -999
2008-10-22 07:41:50 51°16.74 2°44.412 -999 -999 -999 -999 -999
2008-10-22 07:41:55 51°16.749 2°44.39 -999 -999 -999 -999 -999
2008-10-22 07:42:00 51°16.758 2°44.368 -999 -999 -999 -999 -999
2008-10-22 07:42:05 51°16.766 2°44.346 -999 -999 -999 -999 -999
2008-10-22 07:42:10 51°16.775 2°44.323 -999 -999 -999 -999 -999
2008-10-22 07:42:15 51°16.784 2°44.301 -999 -999 -999 -999 -999
2008-10-22 07:42:20 51°16.793 2°44.279 -999 -999 -999 -999 -999
2008-10-22 07:42:25 51°16.802 2°44.257 -999 -999 -999 -999 -999
2008-10-22 07:42:30 51°16.812 2°44.235 -999 -999 -999 -999 -999
2008-10-22 07:42:35 51°16.821 2°44.213 -999 -999 -999 -999 -999
2008-10-22 07:42:40 51°16.831 2°44.192 -999 -999 -999 -999 -999
2008-10-22 07:42:45 51°16.841 2°44.17 -999 -999 -999 -999 -999
2008-10-22 07:42:50 51°16.851 2°44.149 -999 -999 -999 -999 -999
2008-10-22 07:42:55 51°16.86 2°44.128 -999 -999 -999 -999 -999
2008-10-22 07:43:00 51°16.87 2°44.106 -999 -999 -999 -999 -999
2008-10-22 07:43:05 51°16.88 2°44.085 -999 -999 -999 -999 -999
2008-10-22 07:43:10 51°16.89 2°44.064 -999 -999 -999 -999 -999
2008-10-22 07:43:15 51°16.9 2°44.042 -999 -999 -999 -999 -999
2008-10-22 07:43:20 51°16.91 2°44.021 -999 -999 -999 -999 -999
2008-10-22 07:43:25 51°16.92 2°44 -999 -999 -999 -999 -999
2008-10-22 07:43:30 51°16.929 2°43.978 -999 318 -999 -999 -999
2008-10-22 07:43:34 51°16.937 2°43.961 14.2 318 -999 -999 -999
2008-10-22 07:43:40 51°16.949 2°43.935 14 318 -999 -999 -999
2008-10-22 07:43:45 51°16.959 2°43.914 11.8 318 -999 -999 -999
2008-10-22 07:43:49 51°16.966 2°43.896 14.2 282 -999 -999 -999
2008-10-22 07:43:54 51°16.975 2°43.875 14.2 319 11.6 -999 55
2008-10-22 07:43:59 51°16.984 2°43.853 11.4 278 11.6 -999 55
2008-10-22 07:44:04 51°16.994 2°43.831 13.8 318 11.7 -999 63
2008-10-22 07:44:09 51°17.003 2°43.809 13.7 281 11.7 -999 63
2008-10-22 07:44:13 51°17.01 2°43.791 11.5 319 11.7 102000 62
2008-10-22 07:44:18 51°17.019 2°43.769 13.1 277 11.7 102000 62
2008-10-22 07:44:23 51°17.028 2°43.747 13.3 318 11.7 102000 62
2008-10-22 07:44:28 51°17.037 2°43.725 13.3 281 11.7 102000 62
2008-10-22 07:44:33 51°17.046 2°43.703 12.5 318 11.7 102000 62
2008-10-22 07:44:38 51°17.055 2°43.681 12.9 278 11.7 102000 62
2008-10-22 07:44:42 51°17.062 2°43.663 11.9 316 11.7 102000 62
2008-10-22 07:44:47 51°17.071 2°43.641 13.7 285 11.7 102000 62
2008-10-22 07:44:52 51°17.08 2°43.619 15.3 317 11.7 101990 62
2008-10-22 07:44:57 51°17.089 2°43.597 14.3 281 11.7 101990 62
2008-10-22 07:45:02 51°17.098 2°43.575 14.4 317 11.7 102000 64
2008-10-22 07:45:07 51°17.108 2°43.553 11.4 278 11.7 102000 64
2008-10-22 07:45:12 51°17.117 2°43.531 12 319 11.7 101990 64
2008-10-22 07:45:17 51°17.126 2°43.509 13.8 283 11.7 101990 64
2008-10-22 07:45:21 51°17.133 2°43.492 11 320 11.7 101990 63
2008-10-22 07:45:26 51°17.142 2°43.47 11.3 282 11.7 101990 63
2008-10-22 07:45:31 51°17.151 2°43.448 13 318 11.7 101990 64
2008-10-22 07:45:37 51°17.162 2°43.422 11.3 278 11.7 101990 64
2008-10-22 07:45:41 51°17.169 2°43.404 13.1 319 11.7 101990 63
2008-10-22 07:45:46 51°17.179 2°43.383 13 277 11.7 101990 63
2008-10-22 07:45:51 51°17.188 2°43.361 12.5 318 11.7 102000 64
2008-10-22 07:45:56 51°17.197 2°43.339 12.6 281 11.7 102000 64
2008-10-22 07:46:01 51°17.206 2°43.317 13.3 22 11.7 102000 63
2008-10-22 07:46:06 51°17.216 2°43.296 12.5 281 11.7 102000 63
2008-10-22 07:46:11 51°17.225 2°43.274 14.9 316 11.7 102000 64
2008-10-22 07:46:16 51°17.234 2°43.253 13.4 279 11.7 102000 64
2008-10-22 07:46:21 51°17.243 2°43.231 12.3 316 11.8 102000 64
2008-10-22 07:46:26 51°17.253 2°43.21 14 280 11.8 102000 64
2008-10-22 07:46:31 51°17.262 2°43.189 12 27 11.8 101990 64
2008-10-22 07:46:36 51°17.271 2°43.167 13.5 282 11.8 101990 64
2008-10-22 07:46:41 51°17.28 2°43.146 14.2 25 11.7 101980 64
2008-10-22 07:46:46 51°17.29 2°43.125 14.1 280 11.7 101980 64
2008-10-22 07:46:51 51°17.299 2°43.103 14.4 24 11.7 101980 63
2008-10-22 07:46:56 51°17.309 2°43.082 11.1 286 11.7 101980 63
2008-10-22 07:47:01 51°17.319 2°43.062 13.6 24 11.7 101980 63
2008-10-22 07:47:06 51°17.329 2°43.041 13.1 277 11.7 101980 63
2008-10-22 07:47:12 51°17.341 2°43.015 13.5 22 11.8 101990 63
2008-10-22 07:47:17 51°17.351 2°42.995 10.8 285 11.8 101990 63
2008-10-22 07:47:21 51°17.359 2°42.978 10.4 315 11.8 101980 63
2008-10-22 07:47:26 51°17.369 2°42.957 12.8 277 11.8 101980 63
2008-10-22 07:47:31 51°17.378 2°42.936 12.6 315 11.7 101980 62
2008-10-22 07:47:37 51°17.39 2°42.911 10.4 280 11.7 101980 62
2008-10-22 07:47:41 51°17.397 2°42.893 12.1 26 11.7 101990 63
2008-10-22 07:47:46 51°17.407 2°42.872 12.4 284 11.7 101990 63
2008-10-22 07:47:51 51°17.416 2°42.851 12.1 316 11.8 101990 63
2008-10-22 07:47:57 51°17.428 2°42.826 12.6 278 11.8 101990 63
2008-10-22 07:48:01 51°17.436 2°42.809 10.1 315 11.8 102000 63
2008-10-22 07:48:06 51°17.446 2°42.788 13 285 11.8 102000 63
2008-10-22 07:48:11 51°17.456 2°42.767 13.3 315 11.8 102000 64
2008-10-22 07:48:16 51°17.466 2°42.745 12.9 277 11.8 102000 64
2008-10-22 07:48:21 51°17.475 2°42.724 10.7 23 11.8 101990 64
2008-10-22 07:48:26 51°17.485 2°42.703 12.7 284 11.8 101990 64
2008-10-22 07:48:31 51°17.495 2°42.681 12 21 11.8 101990 64
2008-10-22 07:48:36 51°17.504 2°42.66 10.1 276 11.8 101990 64
2008-10-22 07:48:41 51°17.514 2°42.638 13.9 315 11.8 101990 63
2008-10-22 07:48:45 51°17.521 2°42.621 14.8 281 11.8 101990 63
2008-10-22 07:48:51 51°17.534 2°42.596 14 315 11.8 101990 65
2008-10-22 07:48:56 51°17.544 2°42.575 13.4 281 11.8 101990 65
2008-10-22 07:49:01 51°17.554 2°42.554 11.3 315 11.8 101990 64
2008-10-22 07:49:06 51°17.564 2°42.533 10.6 282 11.8 101990 64
2008-10-22 07:49:11 51°17.575 2°42.512 12.8 316 11.8 101990 63
2008-10-22 07:49:17 51°17.587 2°42.487 10.2 278 11.8 101990 63
2008-10-22 07:49:21 51°17.595 2°42.47 12.8 22 11.8 101980 63
2008-10-22 07:49:26 51°17.605 2°42.449 12.5 284 11.8 101980 63
2008-10-22 07:49:31 51°17.615 2°42.427 10.9 315 11.8 101990 63
2008-10-22 07:49:36 51°17.625 2°42.406 13 285 11.8 101990 63
2008-10-22 07:49:41 51°17.635 2°42.385 12.6 315 11.8 102000 62
2008-10-22 07:49:46 51°17.645 2°42.364 13 280 11.8 102000 62
2008-10-22 07:49:51 51°17.655 2°42.343 13.8 315 11.8 101990 63
2008-10-22 07:49:57 51°17.668 2°42.318 12.9 281 11.8 101990 63
2008-10-22 07:50:01 51°17.676 2°42.302 11.2 316 11.8 101990 63
2008-10-22 07:50:06 51°17.686 2°42.28 11.2 278 11.8 101990 63
2008-10-22 07:50:11 51°17.696 2°42.259 14 317 11.8 101990 63
2008-10-22 07:50:17 51°17.707 2°42.233 13.2 283 11.8 101990 63
2008-10-22 07:50:21 51°17.715 2°42.216 12.8 316 11.8 101990 63
2008-10-22 07:50:26 51°17.724 2°42.194 14.7 280 11.8 101990 63
2008-10-22 07:50:31 51°17.734 2°42.173 14.1 317 11.8 101980 64
2008-10-22 07:50:36 51°17.743 2°42.151 15 281 11.8 101980 64
2008-10-22 07:50:41 51°17.753 2°42.129 13.3 316 11.8 101980 64
2008-10-22 07:50:46 51°17.762 2°42.107 12.1 286 11.8 101980 64
2008-10-22 07:50:51 51°17.771 2°42.085 12 315 11.8 101980 63
2008-10-22 07:50:56 51°17.78 2°42.063 13.9 286 11.8 101980 63
2008-10-22 07:51:01 51°17.789 2°42.042 15.1 26 11.8 101980 64
2008-10-22 07:51:06 51°17.799 2°42.02 14.6 284 11.8 101980 64
2008-10-22 07:51:11 51°17.808 2°41.999 13.3 21 11.8 101980 64
2008-10-22 07:51:16 51°17.817 2°41.977 13.5 286 11.8 101980 64
2008-10-22 07:51:21 51°17.827 2°41.955 11.8 316 11.8 101990 64
2008-10-22 07:51:26 51°17.836 2°41.933 11.8 281 11.8 101990 64
2008-10-22 07:51:31 51°17.846 2°41.912 11.5 316 11.8 101990 64
2008-10-22 07:51:37 51°17.857 2°41.886 14 282 11.8 101990 64
2008-10-22 07:51:41 51°17.865 2°41.868 14.5 22 11.8 101990 64
2008-10-22 07:51:47 51°17.876 2°41.843 11.7 286 11.8 101990 64
2008-10-22 07:51:51 51°17.884 2°41.825 13.3 21 11.8 101980 64
2008-10-22 07:51:56 51°17.893 2°41.804 12 283 11.8 101980 64
2008-10-22 07:52:01 51°17.902 2°41.782 11.7 318 11.8 101990 66
2008-10-22 07:52:06 51°17.911 2°41.76 12.2 281 11.8 101990 66
2008-10-22 07:52:11 51°17.92 2°41.738 12.8 321 11.8 101980 65
2008-10-22 07:52:17 51°17.932 2°41.712 15.1 281 11.8 101980 65
2008-10-22 07:52:21 51°17.939 2°41.695 13.1 317 11.9 101990 65
2008-10-22 07:52:26 51°17.948 2°41.673 12.6 280 11.9 101990 65
2008-10-22 07:52:31 51°17.957 2°41.652 15.2 319 11.9 101990 65
2008-10-22 07:52:37 51°17.967 2°41.625 12.7 277 11.9 101990 65
2008-10-22 07:52:41 51°17.974 2°41.607 12.4 319 11.8 101990 65
2008-10-22 07:52:46 51°17.983 2°41.585 13.7 281 11.8 101990 65
2008-10-22 07:52:51 51°17.991 2°41.563 11.8 316 11.8 101980 64
2008-10-22 07:52:57 51°18.002 2°41.536 11.5 276 11.8 101980 64
2008-10-22 07:53:01 51°18.009 2°41.518 13.2 316 11.8 101990 65
2008-10-22 07:53:05 51°18.016 2°41.501 11.6 281 11.8 101990 65
2008-10-22 07:53:11 51°18.027 2°41.475 13.3 320 11.8 101980 64
2008-10-22 07:53:16 51°18.036 2°41.453 11 280 11.8 101980 64
2008-10-22 07:53:21 51°18.046 2°41.431 11.5 318 11.8 101990 64
2008-10-22 07:53:26 51°18.055 2°41.409 14 282 11.8 101990 64
2008-10-22 07:53:31 51°18.064 2°41.387 12 320 11.8 101980 64
2008-10-22 07:53:37 51°18.075 2°41.361 14.1 285 11.8 101980 64
2008-10-22 07:53:41 51°18.082 2°41.343 11.8 319 11.8 101990 65
2008-10-22 07:53:46 51°18.09 2°41.321 12.2 280 11.8 101990 65
2008-10-22 07:53:51 51°18.099 2°41.298 15.2 319 11.8 101990 66
2008-10-22 07:53:56 51°18.108 2°41.276 12.7 276 11.8 101990 66
2008-10-22 07:54:01 51°18.117 2°41.255 12.5 316 11.8 101990 64
2008-10-22 07:54:06 51°18.126 2°41.233 14.1 282 11.8 101990 64
2008-10-22 07:54:11 51°18.135 2°41.211 15 319 11.8 101990 64
2008-10-22 07:54:17 51°18.146 2°41.185 14.2 277 11.8 101990 64
2008-10-22 07:54:21 51°18.153 2°41.168 12.5 319 11.8 101990 65
2008-10-22 07:54:26 51°18.163 2°41.146 14.2 282 11.8 101990 65
2008-10-22 07:54:31 51°18.172 2°41.124 13.5 316 11.8 101980 65
2008-10-22 07:54:36 51°18.181 2°41.103 13.9 282 11.8 101980 65
2008-10-22 07:54:41 51°18.19 2°41.081 13.6 320 11.8 101990 66
2008-10-22 07:54:46 51°18.199 2°41.06 10.9 284 11.8 101990 66
2008-10-22 07:54:51 51°18.208 2°41.038 11.1 320 11.8 101990 65
2008-10-22 07:54:57 51°18.219 2°41.012 12.2 279 11.8 101990 65
2008-10-22 07:55:01 51°18.226 2°40.994 12.1 318 11.8 102000 64
2008-10-22 07:55:05 51°18.232 2°40.977 12 284 11.8 102000 64
2008-10-22 07:55:11 51°18.243 2°40.951 14.3 317 11.8 102000 65
2008-10-22 07:55:16 51°18.252 2°40.929 14.3 278 11.8 102000 65
2008-10-22 07:55:21 51°18.261 2°40.908 14.1 317 11.8 102000 64
2008-10-22 07:55:26 51°18.27 2°40.886 14.2 282 11.8 102000 64
2008-10-22 07:55:31 51°18.279 2°40.865 13 316 11.8 102000 64
2008-10-22 07:55:36 51°18.288 2°40.843 12.8 283 11.8 102000 64
2008-10-22 07:55:41 51°18.297 2°40.822 13.1 317 11.8 102000 65
2008-10-22 07:55:46 51°18.306 2°40.8 11.3 282 11.8 102000 65
2008-10-22 07:55:51 51°18.315 2°40.778 13.2 316 11.8 101990 64
2008-10-22 07:55:56 51°18.324 2°40.757 10.7 283 11.8 101990 64
2008-10-22 07:56:01 51°18.333 2°40.735 10.8 319 11.8 102000 64
2008-10-22 07:56:06 51°18.342 2°40.713 14.5 283 11.8 102000 64
2008-10-22 07:56:11 51°18.351 2°40.691 14.4 319 11.8 102000 65
2008-10-22 07:56:16 51°18.36 2°40.67 13 282 11.8 102000 65
2008-10-22 07:56:21 51°18.369 2°40.648 15.9 319 11.8 102000 66
2008-10-22 07:56:26 51°18.378 2°40.627 15.4 282 11.8 102000 66
2008-10-22 07:56:31 51°18.387 2°40.605 12.7 317 11.8 102000 67
2008-10-22 07:56:36 51°18.396 2°40.584 15.2 281 11.8 102000 67
2008-10-22 07:56:41 51°18.405 2°40.562 15 317 11.8 102000 66
2008-10-22 07:56:46 51°18.414 2°40.541 11.5 281 11.8 102000 66
2008-10-22 07:56:51 51°18.423 2°40.519 12 318 11.7 101980 65
2008-10-22 07:56:57 51°18.434 2°40.494 11.2 283 11.7 101980 65
2008-10-22 07:57:01 51°18.441 2°40.477 11.9 317 11.8 102000 66
2008-10-22 07:57:06 51°18.45 2°40.455 13.2 279 11.8 102000 66
2008-10-22 07:57:11 51°18.459 2°40.434 11 319 11.8 102000 66
2008-10-22 07:57:17 51°18.47 2°40.408 11.4 281 11.8 102000 66
2008-10-22 07:57:21 51°18.478 2°40.391 11.2 321 11.7 101990 67
2008-10-22 07:57:25 51°18.485 2°40.374 11.4 281 11.7 101990 67
2008-10-22 07:57:31 51°18.496 2°40.349 13.8 319 11.7 101990 65
2008-10-22 07:57:36 51°18.505 2°40.328 11 282 11.7 101990 65
2008-10-22 07:57:41 51°18.514 2°40.307 13.6 318 11.7 102000 65
2008-10-22 07:57:46 51°18.524 2°40.286 10.4 279 11.7 102000 65
2008-10-22 07:57:51 51°18.533 2°40.264 13.6 318 11.7 102000 64
2008-10-22 07:57:56 51°18.542 2°40.243 13.8 284 11.7 102000 64
2008-10-22 07:58:01 51°18.551 2°40.221 13.1 318 11.8 102000 65
2008-10-22 07:58:06 51°18.561 2°40.2 13.2 283 11.8 102000 65
2008-10-22 07:58:11 51°18.57 2°40.178 12.9 319 11.7 102000 65
2008-10-22 07:58:16 51°18.579 2°40.157 13.8 277 11.7 102000 65
2008-10-22 07:58:21 51°18.588 2°40.135 10.7 318 11.7 101990 65
2008-10-22 07:58:26 51°18.597 2°40.113 11.3 279 11.7 101990 65
2008-10-22 07:58:31 51°18.607 2°40.092 12.9 317 11.7 102000 66
2008-10-22 07:58:37 51°18.617 2°40.065 12.9 285 11.7 102000 66
2008-10-22 07:58:41 51°18.625 2°40.048 11.1 316 11.7 102000 66
2008-10-22 07:58:46 51°18.634 2°40.027 14.3 281 11.7 102000 66
2008-10-22 07:58:51 51°18.643 2°40.005 13.9 317 11.7 102000 65
2008-10-22 07:58:56 51°18.652 2°39.983 11.3 279 11.7 102000 65
2008-10-22 07:59:01 51°18.661 2°39.961 12.7 316 11.8 101990 66
2008-10-22 07:59:06 51°18.67 2°39.939 12.2 286 11.8 101990 66
2008-10-22 07:59:12 51°18.682 2°39.913 13.6 319 11.8 101990 67
2008-10-22 07:59:17 51°18.691 2°39.891 12.8 279 11.8 101990 67
2008-10-22 07:59:21 51°18.698 2°39.874 14.3 321 11.8 101990 67
2008-10-22 07:59:26 51°18.708 2°39.853 13.9 281 11.8 101990 67
2008-10-22 07:59:31 51°18.717 2°39.831 11.5 319 11.8 101990 67
2008-10-22 07:59:36 51°18.727 2°39.81 11.5 279 11.8 101990 67
2008-10-22 07:59:41 51°18.736 2°39.789 13.2 320 11.8 102000 67
2008-10-22 07:59:46 51°18.745 2°39.767 14.7 283 11.8 102000 67
2008-10-22 07:59:51 51°18.755 2°39.745 14.4 320 11.8 101990 67
2008-10-22 07:59:56 51°18.764 2°39.723 14 282 11.8 101990 67
2008-10-22 08:00:01 51°18.774 2°39.702 14.1 319 11.8 101990 68
2008-10-22 08:00:06 51°18.783 2°39.68 14.5 281 11.8 101990 68
2008-10-22 08:00:11 51°18.792 2°39.658 12.1 319 11.8 101990 67
2008-10-22 08:00:16 51°18.802 2°39.636 15.3 280 11.8 101990 67
2008-10-22 08:00:21 51°18.811 2°39.614 12.3 319 11.8 102000 67
2008-10-22 08:00:26 51°18.82 2°39.593 15.1 281 11.8 102000 67
2008-10-22 08:00:31 51°18.829 2°39.57 14.1 320 11.8 101990 67
2008-10-22 08:00:37 51°18.84 2°39.544 13.2 281 11.8 101990 67
2008-10-22 08:00:41 51°18.847 2°39.526 11.3 323 11.7 101990 67
2008-10-22 08:00:45 51°18.854 2°39.509 11.4 281 11.7 101990 67
2008-10-22 08:00:51 51°18.866 2°39.482 14.6 320 11.7 101990 67
2008-10-22 08:00:56 51°18.874 2°39.46 13.6 282 11.7 101990 67
2008-10-22 08:01:01 51°18.883 2°39.438 11.7 321 11.8 101990 68
2008-10-22 08:01:06 51°18.892 2°39.415 10.8 280 11.8 101990 68
2008-10-22 08:01:12 51°18.903 2°39.389 11.3 324 11.7 102000 68
2008-10-22 08:01:17 51°18.912 2°39.367 11.6 283 11.7 102000 68
2008-10-22 08:01:21 51°18.92 2°39.35 11.5 324 11.7 102000 67
2008-10-22 08:01:26 51°18.929 2°39.327 12.8 285 11.7 102000 67
2008-10-22 08:01:31 51°18.938 2°39.305 12.6 321 11.8 102010 68
2008-10-22 08:01:37 51°18.948 2°39.278 13.4 282 11.8 102010 68
2008-10-22 08:01:41 51°18.955 2°39.26 11.3 320 11.8 102000 69
2008-10-22 08:01:46 51°18.964 2°39.238 13.3 286 11.8 102000 69
2008-10-22 08:01:51 51°18.974 2°39.216 13.6 320 11.8 102000 67
2008-10-22 08:01:56 51°18.983 2°39.195 11.7 286 11.8 102000 67
2008-10-22 08:02:01 51°18.993 2°39.173 11.1 323 11.7 101990 66
2008-10-22 08:02:05 51°19 2°39.155 10.6 281 11.7 101990 66
2008-10-22 08:02:11 51°19.011 2°39.129 12.8 320 11.7 102000 67
2008-10-22 08:02:16 51°19.021 2°39.107 13 283 11.7 102000 67
2008-10-22 08:02:21 51°19.03 2°39.085 10.7 321 11.7 102000 67
2008-10-22 08:02:26 51°19.04 2°39.063 10.9 281 11.7 102000 67
2008-10-22 08:02:31 51°19.049 2°39.041 10.7 320 11.7 102000 68
2008-10-22 08:02:37 51°19.061 2°39.015 10.3 284 11.7 102000 68
2008-10-22 08:02:41 51°19.068 2°38.998 13.4 323 11.7 102000 68
2008-10-22 08:02:47 51°19.079 2°38.971 10.9 284 11.7 102000 68
2008-10-22 08:02:51 51°19.087 2°38.954 14.6 321 11.7 102000 67
2008-10-22 08:02:56 51°19.096 2°38.932 14.7 281 11.7 102000 67
2008-10-22 08:03:01 51°19.106 2°38.91 12.5 320 11.7 102010 67
2008-10-22 08:03:06 51°19.115 2°38.888 15.2 282 11.7 102010 67
2008-10-22 08:03:12 51°19.126 2°38.862 11.8 321 11.7 102010 68
2008-10-22 08:03:17 51°19.136 2°38.84 15.1 285 11.7 102010 68
2008-10-22 08:03:21 51°19.143 2°38.822 12.3 321 11.7 101990 67
2008-10-22 08:03:26 51°19.152 2°38.8 14.3 278 11.7 101990 67
2008-10-22 08:03:31 51°19.161 2°38.778 11.8 319 11.7 102000 68
2008-10-22 08:03:36 51°19.17 2°38.756 14.3 285 11.7 102000 68
2008-10-22 08:03:41 51°19.18 2°38.734 11.6 318 11.7 102000 67
2008-10-22 08:03:46 51°19.189 2°38.712 14.8 284 11.7 102000 67
2008-10-22 08:03:51 51°19.198 2°38.69 14.1 319 11.7 102000 67
2008-10-22 08:03:57 51°19.209 2°38.664 10.6 281 11.7 102000 67
2008-10-22 08:04:01 51°19.217 2°38.646 10.9 318 11.7 102000 67
2008-10-22 08:04:05 51°19.224 2°38.629 13.6 279 11.7 102000 67
2008-10-22 08:04:11 51°19.235 2°38.602 13.4 322 11.7 101990 67
2008-10-22 08:04:16 51°19.244 2°38.58 13.8 277 11.7 101990 67
2008-10-22 08:04:21 51°19.253 2°38.558 12 323 11.8 102000 68
2008-10-22 08:04:26 51°19.262 2°38.536 13.4 282 11.8 102000 68
2008-10-22 08:04:31 51°19.271 2°38.514 14.5 322 11.8 102000 69
2008-10-22 08:04:36 51°19.281 2°38.492 11.1 283 11.8 102000 69
2008-10-22 08:04:41 51°19.289 2°38.47 12.1 318 11.8 102000 69
2008-10-22 08:04:47 51°19.3 2°38.443 14.7 285 11.8 102000 69
2008-10-22 08:04:51 51°19.307 2°38.425 11.7 317 11.8 102000 68
2008-10-22 08:04:56 51°19.317 2°38.404 11.5 285 11.8 102000 68
2008-10-22 08:05:01 51°19.325 2°38.382 13.1 321 11.8 102000 67
2008-10-22 08:05:06 51°19.335 2°38.36 13.2 277 11.8 102000 67
2008-10-22 08:05:12 51°19.345 2°38.333 11.9 320 11.7 101990 67
2008-10-22 08:05:17 51°19.354 2°38.311 14.3 280 11.7 101990 67
2008-10-22 08:05:21 51°19.361 2°38.293 14.9 321 11.8 102000 66
2008-10-22 08:05:26 51°19.371 2°38.271 14.6 284 11.8 102000 66
2008-10-22 08:05:31 51°19.379 2°38.25 11.7 321 11.8 102000 67
2008-10-22 08:05:36 51°19.388 2°38.228 12.2 283 11.8 102000 67
2008-10-22 08:05:41 51°19.397 2°38.205 11.7 320 11.8 102000 66
2008-10-22 08:05:46 51°19.407 2°38.183 14.7 278 11.8 102000 66
2008-10-22 08:05:51 51°19.416 2°38.162 11.9 317 11.7 102000 66
2008-10-22 08:05:57 51°19.427 2°38.135 14.3 280 11.7 102000 66
2008-10-22 08:06:01 51°19.434 2°38.118 14.1 316 11.7 102000 65
2008-10-22 08:06:05 51°19.442 2°38.101 11.4 281 11.7 102000 65
2008-10-22 08:06:11 51°19.453 2°38.075 11.6 316 11.7 102000 65
2008-10-22 08:06:17 51°19.465 2°38.049 11.8 277 11.7 102000 65
2008-10-22 08:06:21 51°19.472 2°38.031 14.2 316 11.8 102000 67
2008-10-22 08:06:26 51°19.482 2°38.01 11.4 285 11.8 102000 67
2008-10-22 08:06:31 51°19.491 2°37.988 14.3 317 11.7 102000 66
2008-10-22 08:06:37 51°19.502 2°37.962 13.9 284 11.7 102000 66
2008-10-22 08:06:41 51°19.51 2°37.944 11 318 11.7 102000 65
2008-10-22 08:06:45 51°19.517 2°37.927 13.3 279 11.7 102000 65
2008-10-22 08:06:51 51°19.529 2°37.901 10.6 317 11.7 102000 65
2008-10-22 08:06:56 51°19.538 2°37.879 10.7 279 11.7 102000 65
2008-10-22 08:07:01 51°19.547 2°37.858 10.3 318 11.7 102010 65
2008-10-22 08:07:06 51°19.557 2°37.837 12.7 282 11.7 102010 65
2008-10-22 08:07:11 51°19.567 2°37.815 10.3 317 11.7 102010 66
2008-10-22 08:07:17 51°19.578 2°37.789 11 278 11.7 102010 66
2008-10-22 08:07:21 51°19.586 2°37.772 15.1 317 11.7 102000 66
2008-10-22 08:07:27 51°19.597 2°37.746 14.6 283 11.7 102000 66
2008-10-22 08:07:31 51°19.605 2°37.729 13.4 319 11.7 102000 66
2008-10-22 08:07:36 51°19.614 2°37.708 11.4 281 11.7 102000 66
2008-10-22 08:07:41 51°19.625 2°37.687 14.3 320 11.7 102010 66
2008-10-22 08:07:46 51°19.634 2°37.666 12.3 282 11.7 102010 66
2008-10-22 08:07:52 51°19.646 2°37.64 14.3 321 11.7 101990 66
2008-10-22 08:07:57 51°19.655 2°37.619 11.6 282 11.7 101990 66
2008-10-22 08:08:01 51°19.663 2°37.601 15 319 11.7 102010 67
2008-10-22 08:08:05 51°19.67 2°37.584 11.6 281 11.7 102010 67
2008-10-22 08:08:12 51°19.684 2°37.554 14.8 317 11.8 102000 67
2008-10-22 08:08:17 51°19.694 2°37.533 11.3 281 11.8 102000 67
2008-10-22 08:08:21 51°19.702 2°37.517 11.5 317 11.7 102010 66
2008-10-22 08:08:26 51°19.713 2°37.496 12 279 11.7 102010 66
2008-10-22 08:08:31 51°19.723 2°37.475 12.9 324 11.7 102010 65
2008-10-22 08:08:37 51°19.734 2°37.449 12.4 285 11.7 102010 65
2008-10-22 08:08:41 51°19.742 2°37.432 11.9 319 11.7 102000 66
2008-10-22 08:08:46 51°19.751 2°37.411 12.2 286 11.7 102000 66
2008-10-22 08:08:51 51°19.762 2°37.39 16.1 320 11.8 102010 68
2008-10-22 08:08:56 51°19.771 2°37.369 12.7 284 11.8 102010 68
2008-10-22 08:09:01 51°19.781 2°37.349 12.8 319 11.7 102010 66
2008-10-22 08:09:06 51°19.791 2°37.328 14.1 278 11.7 102010 66
2008-10-22 08:09:11 51°19.8 2°37.309 14.2 317 11.7 102010 67
2008-10-22 08:09:16 51°19.809 2°37.29 11.3 281 11.7 102010 67
2008-10-22 08:09:21 51°19.819 2°37.271 14.3 318 11.8 101990 66
2008-10-22 08:09:27 51°19.83 2°37.249 14.2 285 11.8 101990 66
2008-10-22 08:09:31 51°19.837 2°37.235 14.5 318 11.8 102010 67
2008-10-22 08:09:36 51°19.847 2°37.216 14.2 285 11.8 102010 67
2008-10-22 08:09:41 51°19.856 2°37.199 13.8 319 11.8 102000 66
2008-10-22 08:09:46 51°19.866 2°37.181 13.6 281 11.8 102000 66
2008-10-22 08:09:52 51°19.877 2°37.16 13.4 317 11.8 102010 67
2008-10-22 08:09:57 51°19.887 2°37.143 11.2 281 11.8 102010 67
2008-10-22 08:10:01 51°19.895 2°37.13 12.5 318 11.8 102000 65
2008-10-22 08:10:06 51°19.905 2°37.113 12.4 286 11.8 102000 65
2008-10-22 08:10:11 51°19.914 2°37.095 13.1 317 11.8 102010 65
2008-10-22 08:10:16 51°19.924 2°37.078 12.9 284 11.8 102010 65
2008-10-22 08:10:21 51°19.934 2°37.061 12.6 319 11.8 102000 65
2008-10-22 08:10:26 51°19.944 2°37.044 11.2 279 11.8 102000 65
2008-10-22 08:10:31 51°19.953 2°37.027 10.8 317 11.8 102000 67
2008-10-22 08:10:37 51°19.965 2°37.007 11.3 283 11.8 102000 67
2008-10-22 08:10:41 51°19.973 2°36.993 13.5 19 11.8 102020 66
2008-10-22 08:10:46 51°19.982 2°36.976 10.9 280 11.8 102020 66
2008-10-22 08:10:51 51°19.991 2°36.959 15.2 316 11.8 102010 66
2008-10-22 08:10:56 51°20 2°36.944 13.3 282 11.8 102010 66
2008-10-22 08:11:01 51°20.008 2°36.929 13.4 316 11.8 102010 66
2008-10-22 08:11:06 51°20.017 2°36.914 9.7 281 11.8 102010 66
2008-10-22 08:11:11 51°20.025 2°36.902 12.1 317 11.8 102010 67
2008-10-22 08:11:16 51°20.032 2°36.89 12.6 282 11.8 102010 67
2008-10-22 08:11:21 51°20.038 2°36.88 12.9 20 11.8 102000 66
2008-10-22 08:11:26 51°20.044 2°36.872 10 281 11.8 102000 66
2008-10-22 08:11:31 51°20.049 2°36.865 10.4 20 11.8 102010 67
2008-10-22 08:11:37 51°20.055 2°36.858 8.3 287 11.8 102010 67
2008-10-22 08:11:41 51°20.057 2°36.855 7.6 21 11.8 102020 66
2008-10-22 08:11:47 51°20.061 2°36.852 9.8 283 11.8 102020 66
2008-10-22 08:11:51 51°20.063 2°36.851 9.3 25 11.8 102010 65
2008-10-22 08:11:56 51°20.065 2°36.852 8.8 279 11.8 102010 65
2008-10-22 08:12:01 51°20.066 2°36.853 8.8 24 11.8 102020 66
2008-10-22 08:12:06 51°20.067 2°36.855 8.8 281 11.8 102020 66
2008-10-22 08:12:12 51°20.068 2°36.858 8.6 250 11.8 102030 66
2008-10-22 08:12:17 51°20.068 2°36.86 6.8 286 11.8 102030 66
2008-10-22 08:12:21 51°20.069 2°36.861 8 254 11.7 102030 66
2008-10-22 08:12:27 51°20.07 2°36.864 9.3 285 11.7 102030 66
2008-10-22 08:12:33 51°20.07 2°36.866 8.3 255 11.7 102030 65
2008-10-22 08:12:38 51°20.071 2°36.868 7.9 285 11.7 102030 65
2008-10-22 08:12:44 51°20.073 2°36.87 9.5 257 11.7 102080 66
2008-10-22 08:12:49 51°20.074 2°36.872 7.2 279 11.7 102080 66
2008-10-22 08:12:54 51°20.075 2°36.874 7.2 261 11.7 102040 66
2008-10-22 08:13:00 51°20.077 2°36.876 8.4 283 11.7 102040 66
2008-10-22 08:13:05 51°20.078 2°36.878 6.6 259 11.7 102050 66
2008-10-22 08:13:10 51°20.079 2°36.88 6.4 281 11.7 102050 66
2008-10-22 08:13:14 51°20.08 2°36.881 9.4 257 11.7 102050 66
2008-10-22 08:13:20 51°20.082 2°36.884 7.3 279 11.7 102050 66
2008-10-22 08:13:25 51°20.083 2°36.885 6.4 259 11.7 102050 66
2008-10-22 08:13:30 51°20.084 2°36.888 7.4 285 11.7 102050 66
2008-10-22 08:13:34 51°20.085 2°36.889 9 259 11.7 102050 66
2008-10-22 08:13:39 51°20.086 2°36.891 6.2 280 11.7 102050 66
2008-10-22 08:13:44 51°20.088 2°36.893 6.7 264 11.7 102050 66
2008-10-22 08:13:49 51°20.089 2°36.895 8.8 282 11.7 102050 66
2008-10-22 08:13:54 51°20.09 2°36.897 9.5 256 11.7 102050 67
2008-10-22 08:13:59 51°20.091 2°36.899 8.6 280 11.7 102050 67
2008-10-22 08:14:03 51°20.092 2°36.901 7.8 256 11.7 102050 68
2008-10-22 08:14:09 51°20.094 2°36.904 7.8 280 11.7 102050 68
2008-10-22 08:14:13 51°20.095 2°36.906 9.3 259 11.8 102050 69
2008-10-22 08:14:18 51°20.096 2°36.909 7.8 279 11.8 102050 69
2008-10-22 08:14:23 51°20.098 2°36.911 9.6 258 11.8 102050 69
2008-10-22 08:14:28 51°20.099 2°36.913 8.9 281 11.8 102050 69
2008-10-22 08:14:33 51°20.1 2°36.916 7.2 258 11.8 102050 67
2008-10-22 08:14:37 51°20.101 2°36.918 6.3 281 11.8 102050 67
2008-10-22 08:14:42 51°20.102 2°36.92 6.2 256 11.7 102050 67
2008-10-22 08:14:47 51°20.103 2°36.922 6.7 281 11.7 102050 67
2008-10-22 08:14:52 51°20.105 2°36.924 8.1 259 11.7 102040 67
2008-10-22 08:14:57 51°20.106 2°36.927 5.7 281 11.7 102040 67
2008-10-22 08:15:01 51°20.107 2°36.928 8.1 262 11.8 102050 68
2008-10-22 08:15:06 51°20.108 2°36.93 6.2 282 11.8 102050 68
2008-10-22 08:15:11 51°20.109 2°36.932 6.4 260 11.8 102050 68
2008-10-22 08:15:17 51°20.11 2°36.935 7 279 11.8 102050 68
2008-10-22 08:15:21 51°20.111 2°36.937 6.3 260 11.8 102050 68
2008-10-22 08:15:26 51°20.112 2°36.939 5.5 278 11.8 102050 68
2008-10-22 08:15:31 51°20.113 2°36.941 6.3 260 11.8 102050 68
2008-10-22 08:15:37 51°20.115 2°36.944 6 284 11.8 102050 68
2008-10-22 08:15:41 51°20.116 2°36.946 7.4 261 11.8 102050 68
2008-10-22 08:15:46 51°20.117 2°36.948 5.7 284 11.8 102050 68
2008-10-22 08:15:51 51°20.118 2°36.95 6.2 269 11.8 102050 69
2008-10-22 08:15:56 51°20.119 2°36.953 5.4 279 11.8 102050 69
2008-10-22 08:16:01 51°20.12 2°36.955 4.7 267 11.8 102050 69
2008-10-22 08:16:06 51°20.121 2°36.957 5.2 279 11.8 102050 69
2008-10-22 08:16:11 51°20.122 2°36.96 4.5 265 11.9 102050 71
2008-10-22 08:16:16 51°20.123 2°36.962 5.8 284 11.9 102050 71
2008-10-22 08:16:21 51°20.124 2°36.964 4.2 265 11.9 102060 71
2008-10-22 08:16:27 51°20.125 2°36.968 5.2 278 11.9 102060 71
2008-10-22 08:16:31 51°20.126 2°36.969 5.8 264 11.9 102060 70
2008-10-22 08:16:36 51°20.127 2°36.972 6.4 278 11.9 102060 70
2008-10-22 08:16:41 51°20.128 2°36.975 4.9 263 11.9 102050 70
2008-10-22 08:16:46 51°20.129 2°36.977 6.4 281 11.9 102050 70
2008-10-22 08:16:51 51°20.13 2°36.98 8 262 11.9 102060 70
2008-10-22 08:16:57 51°20.131 2°36.983 8.8 279 11.9 102060 70
2008-10-22 08:17:01 51°20.132 2°36.985 7 263 11.8 102060 69
2008-10-22 08:17:06 51°20.133 2°36.987 4.7 285 11.8 102060 69
2008-10-22 08:17:11 51°20.134 2°36.99 6.5 263 11.8 102060 68
2008-10-22 08:17:17 51°20.135 2°36.993 5.4 280 11.8 102060 68
2008-10-22 08:17:21 51°20.136 2°36.996 5.9 264 11.8 102060 69
2008-10-22 08:17:26 51°20.137 2°36.998 5.7 279 11.8 102060 69